Location: Unspecified
(0.0000°N, 0.0000°E)
Time: 13:34:30
(UTC+02:00)

Centaur D-1AR AC-41 - Visible Passes

Search period start: 02 September 2014 00:00
Search period end: 12 September 2014 00:00
Orbit: 669 x 36175 km, 21.4° (Epoch: 02 September)

Date Brightness Start Highest point End Pass type
(mag) Time Alt. Az. Time Alt. Az. Time Alt. Az.
02 Sep 9.7 00:00:00 25° E 02:55:23 42° ESE 04:35:11 10° ESE visible
03 Sep 9.4 03:57:07 10° WNW 05:26:30 28° WNW 08:37:40 10° W visible
04 Sep 7.2 01:02:16 10° WNW 03:11:58 66° NW 11:08:52 10° SE visible
04 Sep 8.3 22:24:58 10° WNW 03:48:17 88° NNW 08:36:15 10° ESE visible
05 Sep 8.0 19:52:09 10° WNW 04:01:53 65° ESE 05:58:57 10° ESE visible
06 Sep 9.9 22:50:25 10° E 01:39:39 26° E 03:01:59 10° ESE visible
08 Sep 6.3 11:50:12 10° WSW 04:11:59 45° WNW 12:23:25 10° ESE visible
08 Sep 7.9 23:41:44 10° WNW 02:40:05 79° NNW 09:51:36 10° SE visible
09 Sep 8.1 21:07:04 10° WNW 04:11:24 84° SSE 07:17:33 10° ESE visible
10 Sep 7.5 18:35:02 10° WNW 02:49:06 48° ESE 19:17:53 10° ENE visible
